彩虹-1 3星 (RADUGA-1 3)

导读 | 星芒AI

RADUGA-1 3 是俄罗斯一颗用于电子侦察的军用卫星,属于“彩虹”(RADUGA)系列。该系列卫星主要用于收集和分析地球上的无线电通信信号,以支持情报和军事监视任务。RADUGA-1 3 于2022年发射,运行在近地轨道,具备先进的信号侦测和处理能力。该卫星不对外公开详细技术参数,其任务和运行情况由俄罗斯国防部负责管理。RADUGA-1 3 的部署增强了俄罗斯在空间电子战和情报收集领域的能力。

基本信息
目录编号:
22981
目录名称:
RADUGA 1-3
国际标识:
1994-008A
轨道中心:
EARTH
卫星名称:
彩虹-1 3星
卫星全名:
彩虹-1 3星 (RADUGA-1 3)
卫星状态:
在轨 (已飞行11589 天)
发射日期:
1994-02-05 UTC
国别 :
俄罗斯(独联体) (CIS)
星等 :
--
轨道信息
数据来源 国际轨道数据 AOE轨道数据
星历时间 2025-10-29T12:41:21+0800
12小时前
查看轨道信息
2025-10-29T05:00:00+0800
20小时前
查看轨道信息
半长轴 42162.822km 42162.738km
偏心率 0.0003437 0.0003763
轨道倾角 14.264° 14.265°
近地点辐角 223.173° 224.376°
升交点赤经 349.943° 349.942°
平近点角 303.882° 187.022°
近地点 35770.195km 35768.737km
远地点 35799.179km 35800.469km
周期 1435.999分钟 1435.995分钟
每日圈数 1.002786 1.002789
详细信息
平衡模式:
三轴稳定
覆盖范围:
全球
运营商:
俄罗斯国家航天集团
运营商所在国:
俄罗斯
制造商(研发单位):
普里克拉德诺伊·梅哈尼基设计局
制造商所在国:
俄罗斯联邦
使用方式:
暂无
卫星简介
彩虹卫星(Raduga, Gran)是苏联用于军事和通信目的的一系列地球静止通信卫星。彩虹卫星旨在支持军事通信、Orbita地面电视网络,并在整个东半球(极地地区除外)提供电话和电报通信。该卫星已退役。
2D轨道图
3D轨道图
轨道高度分析图
轨道倾角分析图
轨道综合分析图
查看轨道综合分析图